Regional Weather Roundup
Issued by NWS

Home | Current Version | Previous Version | Graphics & Text | Print | Product List | Glossary On
Versions: 1 2 3 4 5 6 7 8 9 10 11 12 13 14 15 16 17 18 19 20 21 22 23 24 25 26 27 28 29 30 31 32 33 34 35 36 37 38 39 40 41 42 43 44 45 46 47 48 49 50
000
ASUS43 KLSX 242110
RWRMO

WEATHER SUMMARY FOR MISSOURI
NATIONAL WEATHER SERVICE SPRINGFIELD MO
400 PM CDT FRI MAR 24 2017

NOTE: "FAIR" INDICATES FEW OR NO CLOUDS BELOW 12,000 FEET WITH NO
       SIGNIFICANT WEATHER AND/OR OBSTRUCTIONS TO VISIBILITY.
       CURRENT SKY AND/OR WEATHER CONDITIONS ARE NOT AVAILABLE FOR
       CHILLICOTHE AND FARMINGTON.

MOZ001>031-035>038-043-044-053-054-242200-
...NORTHERN AND WESTERN MISSOURI...

CITY           SKY/WX    TMP DP  RH WIND       PRES   REMARKS
KANSAS CTY INT LGT RAIN  59  56  89 E9        29.86S
KANSAS C DTWN  LGT RAIN  63  59  87 S6        29.85S
LEE`S SUMMIT   LGT RAIN  60  59  96 S12       29.86F FOG
ST JOSEPH      CLOUDY    59  56  89 SE8       29.85S
CHILLICOTHE      N/A     56  55  97 E6        29.93S
KIRKSVILLE     LGT RAIN  57  57 100 SE5       29.94F FOG

$$
MOZ066>068-077>081-088>096-101>105-242200-
...SOUTHWEST MISSOURI...

CITY           SKY/WX    TMP DP  RH WIND       PRES   REMARKS
SPRINGFIELD    LGT RAIN  61  57  87 S17       29.91F FOG
JOPLIN         LGT RAIN  62  59  90 S20G29    29.83S FOG
BRANSON        CLOUDY    72  54  53 S15G26    29.91F

$$
MOZ032>034-039>042-045>050-055>058-069>072-242200-
...CENTRAL MISSOURI...

CITY           SKY/WX    TMP DP  RH WIND       PRES   REMARKS
COLUMBIA       LGT RAIN  63  58  83 W5        29.92F
JEFFERSON CITY CLOUDY    75  51  43 S10G20    29.89F
ROLLA          CLOUDY    72  52  49 S21G33    29.92S
SEDALIA        LGT RAIN  61  58  90 S17G23    29.92R FOG
WHITEMAN AFB   RAIN      59  59 100 S8        29.88S FOG
WARRENSBURG    RAIN      59  55  88 SE7       29.88F
OSAGE BEACH    CLOUDY   N/A N/A N/A S10G23    29.92R

$$
MOZ051-052-059>065-242200-
...EAST CENTRAL MISSOURI...

CITY           SKY/WX    TMP DP  RH WIND       PRES   REMARKS
ST LOUIS INTL  CLOUDY    78  51  38 S15       29.95S
SPIRIT OF STL  CLOUDY    76  51  41 S14G22    29.93S
ST CHARLES     CLOUDY    78  50  37 SW26G33   29.92F

$$
MOZ072>076-082>087-097>100-106>115-242200-
...SOUTH CENTRAL AND SOUTHEAST MISSOURI...

CITY           SKY/WX    TMP DP  RH WIND       PRES   REMARKS
CAPE GIRARDEAU PTSUNNY   73  57  57 S20G29    30.04F
FARMINGTON     CLOUDY    71  56  58 S21G29    29.98F
POPLAR BLUFF   PTSUNNY   73  58  59 S14G26    30.01F
WEST PLAINS    CLOUDY    72  54  53 S18G36    29.97F

$$




USA.gov is the U.S. government's official web portal to all federal, state and local government web resources and services.